SCP
0 0 0 0 0 0 0 0 0 0 0 0 0 0 0 0 0 0 0 0 0 0 0 0 0 0 0 0 0 0 0 0 0 0 0 0 0 0 0 -0 -0 0 0 0
0 0 0 0 0 0 0 0 0 0 0 0 0 0 0 0 0 0 0 0 0 0 0 0 0 0 0 0 0 0 0 0 0 0 0 0 0 0 0 0 0 0 -0 -0
0 0 0 0 0 0 0 0 0 0 0 0 0 0 0 0 0 0 0 0 0 0 0 0 0 0 0 0 0 0 0 0 0 0 0 -0 0 0 0 0 0 -0 -0 -0
0 0 0 0 0 0 0 0 0 0 0 0 0 0 0 0 0 0 0 0 0 0 0 0 0 0 0 0 0 0 0 0 0 0 0 0 0 0 0 0 0 0 -0 -0
0 0 0 0 0 0 0 0 0 0 0 0 0 0 0 0 0 0 0 0 0 0 0 0 0 0 0 0 0 0 0 0 0 0 0 0 0 0 0 0 0 0 0 -0
0 0 0 0 0 0 0 0 0 0 0 0 0 0 0 0 0 0 0 0 0 0 -0 0 0 0 0 0 0 0 0 0 0 0 0 0 0 0 0 0 0 0 0 -0
0 0 0 0 0 0 0 0 0 0 0 0 0 0 0 0 0 0 0 0 0 0 0 0 0 0 0 0 0 0 0 0 0 0 0 0 0 0 0 0 -0 -0 0 0
0 0 0 0 0 0 0 0 0 0 0 0 0 0 0 0 0 0 0 0 0 0 0 0 0 0 0 0 0 0 0 0 0 0 0 0 0 0 0 0 -0 -0 0 0
0 0 0 0 0 0 0 0 0 0 0 0 0 0 0 0 0 0 0 0 0 0 0 0 0 0 0 0 0 0 0 0 0 0 0 0 -0 0 0 0 0 0 0 0
0 0 0 0 0 0 0 0 0 0 0 0 0 0 0 0 0 0 0 0 0 0 0 0 0 0 0 0 0 0 -0 0 0 0 -0 -0 0 0 -0 0 0 0 0 0
0 0 0 0 0 0 0 0 0 0 0 0 0 0 0 0 0 0 0 0 0 0 0 0 0 0 0 0 0 0 -0 -0 -0 -0 -0 0 0 0 0 0 0 0 0 0
0 0 0 0 0 0 0 0 0 0 0 0 0 0 0 0 0 0 0 0 -0 -0 0 0 0 0 0 0 0 0 -0 -0 -0 -0 0 0 -0 -0 0 -0 -0 -0 -0 0
0 0 0 0 0 0 0 0 0 0 0 0 0 0 0 0 0 0 0 0 0 0 -0 -0 -0 -0 -0 0 0 0 0 -0 -0 -0 0 -0 -0 -0 -0 0 0 -0 -0 -0
0 0 0 0 0 0 0 0 0 0 0 0 0 0 0 0 0 0 0 0 0 0 0 -0 -0 -0 -0 0 0 0 0 -0 -0 -0 0 0 0 0 0 0 0 0 0 0
0 0 0 0 0 0 0 0 0 0 0 0 0 0 0 0 0 0 0 -0 0 0 0 -0 -0 -0 -0 0 0 0 0 0 0 0 0 0 0 0 0 0 0 0 0 0
0 0 0 0 0 0 0 0 0 0 0 0 0 0 0 0 0 0 0 0 0 0 -0 -0 -0 -0 -0 0 0 0 0 -0 0 0 0 0 0 0 0 0 0 0 0 0
0 0 0 0 0 0 0 0 0 0 0 0 0 0 0 0 0 0 0 0 0 0 -0 -0 -0 -0 -0 0 0 0 0 0 0 0 0 0 0 0 0 0 0 0 0 0
0 0 0 0 0 0 0 0 0 0 0 0 0 0 0 0 -0 0 0 0 0 -0 -0 -0 -0 -0 0 0 0 -0 -0 0 0 0 0 0 0 0 0 -0 0 0 0 0
0 0 0 0 0 0 0 0 0 0 0 0 0 0 0 0 0 0 0 0 0 0 -0 0 -0 -0 -0 0 -0 0 0 0 0 0 0 0 0 0 0 -0 -0 -0 -0 -0
0 0 0 0 0 0 0 0 0 0 0 0 0 0 0 0 0 0 0 0 0 -0 0 0 0 0 0 -0 -0 -0 0 0 0 0 0 0 0 0 0 -0 -0 -0 -0 -0
0 0 0 0 0 0 0 0 0 0 0 0 0 0 0 0 0 0 0 0 0 -0 -0 -0 0 0 0 0 0 -0 -0 -0 0 0 0 0 0 0 -0 -0 -0 -0 -0 -0
0 0 0 0 0 0 0 0 0 0 -0 0 0 0 0 0 0 0 0 0 0 0 0 0 0 -0 -0 -0 0 0 0 0 0 0 0 0 0 -0 -0 -0 -0 -0 -0 -0
0 0 0 0 0 0 0 0 -0 -0 -0 -0 -0 -0 -0 0 0 0 0 0 0 0 0 0 0 -0 -0 -0 0 -0 0 -0 0 0 0 0 0 -0 -0 -0 -0 -0 -0 -0
0 0 0 0 0 0 -0 -0 -0 0 0 0 0 -0 -0 0 0 0 0 0 0 0 0 0 0 0 0 -0 0 0 0 0 0 0 0 0 0 -0 -0 -0 -0 -0 -0 -0
0 0 0 0 0 -0 -0 -0 0 0 0 0 0 0 0 -0 0 0 0 0 0 0 0 0 -0 0 0 0 0 0 0 0 0 0 0 0 0 0 -0 -0 -0 -0 -0 -0
0 -0 -0 -0 -0 -0 0 0 0 0 0 0 0 0 0 0 0 0 0 0 0 0 0 0 0 0 0 0 0 0 0 0 0 0 0 0 0 0 -0 -0 -0 -0 -0 -0
0 0 0 -0 0 0 0 0 0 0 0 0 0 0 0 0 0 0 0 0 0 0 0 0 0 -0 0 0 0 0 0 0 0 0 0 0 0 0 -0 -0 -0 -0 -0 -0
Wind_Speed_500mb
5 8 6 4 7 4 11 11 10 14 13 10 13 11 17 19 9 8 3 4 20 33 45 56 70 79 83 83 78 69 64 59 56 56 57 59 59 60 56 51 46 44 42 37
5 8 5 5 13 16 9 5 9 5 5 4 15 26 20 9 4 5 12 18 27 37 50 65 74 77 76 74 65 60 53 54 55 57 55 56 57 54 51 49 45 43 38 33
8 8 6 8 9 8 3 4 8 9 9 11 11 19 12 6 1 3 4 16 28 43 56 63 67 69 68 62 58 52 53 53 54 51 55 55 53 50 50 49 46 45 42 39
7 7 3 9 5 16 18 9 12 16 10 19 31 23 14 6 6 5 8 20 33 46 54 60 64 61 55 49 50 51 51 49 49 49 52 51 49 47 44 46 47 47 46 43
9 7 5 8 7 11 11 3 7 12 9 19 22 22 12 9 6 6 12 24 36 45 53 60 58 54 47 47 48 48 49 45 46 44 45 46 48 46 46 49 49 49 49 48
4 9 11 9 3 19 22 2 10 14 14 16 15 3 6 10 5 6 16 29 40 48 56 56 52 46 42 45 47 48 46 41 40 40 39 41 42 44 48 53 57 57 56 56
6 3 10 12 13 18 8 12 28 24 20 15 6 8 18 20 6 10 23 34 42 51 51 48 45 41 44 45 45 42 38 36 35 37 37 38 41 49 57 64 70 70 69 68
7 7 12 24 7 14 13 29 39 26 19 21 21 25 27 15 4 14 26 36 44 45 44 40 40 43 46 45 42 37 34 35 39 39 40 46 54 60 66 69 72 73 76 75
13 11 7 18 10 16 51 57 29 26 17 14 19 26 20 10 6 16 28 36 40 40 38 36 41 46 48 43 38 36 37 42 51 53 52 55 61 64 67 66 65 70 71 66
4 5 13 16 25 48 41 34 31 23 16 12 20 24 17 9 7 16 26 32 36 36 35 34 36 37 36 39 39 41 47 55 58 58 54 56 62 62 59 66 60 62 62 63
4 9 30 21 45 40 39 36 31 27 22 21 23 21 11 8 6 15 23 29 33 35 35 33 33 39 43 48 56 59 57 58 56 55 53 48 46 52 55 56 56 55 52 55
6 32 13 36 42 44 44 39 36 33 34 24 12 11 14 9 7 16 21 26 33 39 48 57 62 65 59 54 54 51 50 48 47 46 48 45 45 49 51 49 47 48 46 45
10 31 16 45 44 49 41 38 37 32 26 24 15 8 13 10 8 14 19 23 33 40 50 48 45 51 45 41 38 40 41 40 41 44 44 44 46 47 49 47 43 41 39 36
27 32 33 56 52 41 43 45 40 32 24 17 17 16 11 7 10 15 18 20 29 31 35 39 32 29 28 29 29 25 28 34 36 36 36 35 34 34 33 36 38 39 37 34
40 31 51 53 44 39 48 55 45 36 30 27 19 11 11 11 12 17 17 20 29 32 33 25 21 22 23 19 17 18 23 30 35 35 33 34 35 35 34 33 34 34 28 30
52 44 51 52 56 60 60 52 44 40 32 25 18 15 16 13 15 20 16 17 28 32 28 18 18 20 20 19 19 8 21 28 29 30 31 35 38 38 37 38 41 43 44 43
52 33 44 63 68 69 60 50 42 38 30 18 14 17 20 14 15 18 14 13 27 33 28 19 17 21 21 25 18 14 25 27 23 21 21 26 32 37 38 40 42 43 45 41
56 48 52 68 75 67 53 44 35 27 19 14 18 23 20 9 12 12 8 6 23 36 28 19 16 20 25 26 35 36 26 22 22 24 25 27 31 31 33 38 42 43 41 40
46 51 65 75 68 58 47 36 26 18 14 16 22 19 15 8 7 8 4 3 19 36 31 20 14 14 15 16 16 17 17 19 21 21 23 25 28 31 33 36 38 38 39 42
66 72 75 67 55 47 40 27 19 17 14 15 19 19 17 13 8 8 2 5 11 28 34 26 18 10 14 11 6 14 15 18 17 17 18 22 25 28 31 33 34 36 38 38
81 78 70 60 47 32 24 20 16 14 14 18 21 19 13 11 9 8 5 5 8 31 38 27 23 11 8 3 11 12 11 11 10 12 15 17 20 25 29 30 31 32 35 39
76 66 56 51 46 35 21 16 15 21 22 18 19 20 15 12 11 11 8 7 9 33 36 41 25 14 5 8 12 13 14 11 12 13 15 16 20 23 27 28 31 33 36 38
62 57 54 47 37 32 30 24 26 24 22 20 17 15 15 11 10 14 10 9 10 32 40 37 26 16 10 10 13 8 11 11 12 14 16 17 18 22 27 29 31 32 35 38
55 51 49 40 35 32 31 28 22 16 9 11 13 13 11 9 11 15 12 9 11 24 46 41 32 21 13 8 8 8 6 11 10 10 11 13 18 24 27 29 31 33 35 37
47 50 43 37 32 28 23 20 16 12 9 5 5 8 11 1 17 18 17 15 14 21 49 49 37 34 16 12 10 10 8 10 8 8 12 14 19 22 24 26 30 33 36 39
47 42 29 26 22 18 14 10 5 3 6 9 5 1 7 9 1 17 19 19 18 24 41 53 48 33 21 9 12 14 15 10 8 8 12 16 18 20 24 26 30 33 37 39
32 26 24 21 17 16 13 10 9 5 8 11 11 10 11 15 6 17 21 22 21 26 40 50 43 36 22 15 12 19 14 6 8 10 12 15 18 22 24 27 31 35 36 38
Wind_Direction_500mb
149 136 144 172 271 244 179 206 175 258 203 256 190 155 132 122 132 175 205 5 344 340 335 331 331 331 331 333 338 340 338 342 344 347 352 351 348 350 350 349 346 341 334 326
156 181 152 214 266 273 258 177 236 161 65 92 95 110 108 125 157 21 16 350 340 336 335 334 334 333 337 342 344 344 348 349 352 355 358 354 354 355 358 358 1 360 358 348
199 136 81 305 244 217 51 338 223 164 185 122 85 86 75 44 348 343 21 347 339 338 337 335 336 341 345 347 349 350 352 355 355 -0 1 359 1 0 4 8 11 15 15 10
148 93 166 243 342 91 99 12 22 86 109 139 120 100 105 135 208 108 9 353 340 337 339 341 346 348 349 352 351 354 355 357 2 5 3 5 9 12 14 23 26 27 32 30
140 166 307 287 157 145 143 304 331 102 89 153 138 109 63 106 97 63 1 348 342 344 347 351 351 351 352 354 0 359 1 2 6 7 8 14 18 23 33 41 42 41 45 46
160 150 186 234 219 128 109 158 211 138 139 122 146 102 251 169 117 34 356 352 354 352 355 356 353 355 356 1 359 2 4 7 12 15 18 28 33 41 50 57 59 59 59 63
125 113 294 244 201 161 130 228 176 166 142 125 135 198 163 164 132 13 3 360 357 358 2 1 5 6 9 8 8 7 9 17 22 28 33 41 50 61 66 68 68 68 68 66
120 147 254 188 169 167 177 139 151 146 136 121 138 148 143 144 81 11 4 2 1 5 6 8 15 16 15 9 8 15 23 36 44 47 57 69 75 73 71 68 66 67 68 70
175 205 240 157 143 153 154 151 157 147 142 133 137 149 154 141 52 15 7 6 7 10 14 18 25 20 14 18 25 36 52 63 71 72 77 77 74 72 67 64 65 66 62 63
144 188 140 139 140 152 154 149 149 150 151 153 151 155 158 146 55 14 13 13 16 20 23 22 25 25 34 41 50 63 69 79 81 77 76 78 76 70 67 61 60 63 62 67
136 70 112 144 148 152 152 149 147 151 157 153 148 153 158 142 60 28 23 24 32 41 42 41 51 57 60 67 76 73 72 74 75 72 70 60 57 47 57 63 62 64 61 65
227 176 149 177 172 169 160 155 158 154 145 142 125 145 162 139 73 36 31 40 69 72 73 81 82 80 78 71 69 65 61 56 51 49 44 61 75 77 72 74 68 67 65 58
173 181 180 170 169 164 165 166 165 155 146 149 151 160 156 132 76 42 44 61 102 95 93 95 85 80 73 67 57 57 57 53 55 57 66 73 71 72 75 72 71 63 54 51
222 183 154 157 161 173 172 163 149 143 145 152 161 160 158 133 82 57 54 88 124 123 113 105 91 73 64 75 74 65 42 51 53 58 65 61 59 59 61 61 62 62 56 44
168 185 173 169 171 179 168 157 156 154 155 161 166 171 162 131 84 57 73 109 138 135 126 107 82 50 27 30 38 49 54 60 61 59 58 55 51 53 55 57 59 56 46 43
171 173 176 177 175 168 163 164 162 155 157 157 170 162 153 126 75 52 76 118 153 150 139 118 73 44 24 14 1 29 64 82 69 63 55 49 46 46 47 52 55 55 53 51
189 165 170 166 167 162 164 165 163 158 158 168 175 168 156 130 85 48 71 123 163 158 153 126 72 52 35 27 51 91 102 92 54 36 59 53 45 46 50 52 53 52 52 48
193 193 190 177 164 160 158 156 153 153 161 175 174 165 153 123 65 62 63 122 170 166 161 136 87 65 77 70 88 104 97 75 67 64 58 52 53 53 53 53 53 52 51 53
193 174 171 165 165 165 160 155 156 160 157 161 164 162 156 108 81 80 27 86 178 176 168 152 115 89 77 89 92 85 83 76 69 64 59 55 55 54 47 45 44 44 46 50
162 163 164 162 161 161 151 152 150 146 147 170 169 167 160 136 131 133 148 95 151 174 174 168 153 123 87 32 115 105 94 89 84 64 53 47 47 45 40 39 39 41 48 52
159 159 156 151 144 143 145 139 140 128 131 165 159 152 152 162 167 167 203 139 149 173 172 175 157 147 135 42 90 80 83 88 83 56 49 46 42 42 43 41 42 46 52 53
149 148 144 142 137 128 123 132 119 106 97 116 150 158 160 172 183 189 194 177 160 169 173 163 152 146 100 140 99 98 102 75 57 57 53 47 44 44 41 43 49 52 55 54
147 143 144 136 124 120 118 119 126 108 93 80 81 111 149 169 188 189 180 199 172 179 174 165 153 142 117 107 138 87 73 73 52 59 57 52 48 48 48 53 50 53 55 54
134 136 135 133 131 125 128 134 135 141 122 84 77 84 118 163 183 191 195 206 181 176 177 171 163 153 136 126 123 109 118 65 77 64 53 58 57 47 51 51 52 53 55 54
137 143 144 145 132 129 128 135 148 168 183 171 106 76 47 24 212 213 207 215 196 181 182 179 176 181 186 195 159 131 108 83 80 75 85 67 54 52 52 55 58 60 59 56
148 150 152 145 138 139 141 148 131 172 222 220 227 276 9 11 205 206 206 206 196 182 180 183 179 192 188 191 180 158 153 97 111 106 69 60 57 63 64 62 67 68 63 57
150 150 152 162 187 199 204 218 234 255 267 247 260 279 300 332 258 196 197 194 184 181 177 181 178 185 187 177 158 157 166 129 97 67 60 67 76 73 69 77 76 71 65 59
Wind_Speed_850mb
5 8 6 4 7 4 11 11 10 14 13 10 13 11 17 19 9 8 3 4 20 33 45 56 70 79 83 83 78 69 64 59 56 56 57 59 59 60 56 51 46 44 42 37
5 8 5 5 13 16 9 5 9 5 5 4 15 26 20 9 4 5 12 18 27 37 50 65 74 77 76 74 65 60 53 54 55 57 55 56 57 54 51 49 45 43 38 33
8 8 6 8 9 8 3 4 8 9 9 11 11 19 12 6 1 3 4 16 28 43 56 63 67 69 68 62 58 52 53 53 54 51 55 55 53 50 50 49 46 45 42 39
7 7 3 9 5 16 18 9 12 16 10 19 31 23 14 6 6 5 8 20 33 46 54 60 64 61 55 49 50 51 51 49 49 49 52 51 49 47 44 46 47 47 46 43
9 7 5 8 7 11 11 3 7 12 9 19 22 22 12 9 6 6 12 24 36 45 53 60 58 54 47 47 48 48 49 45 46 44 45 46 48 46 46 49 49 49 49 48
4 9 11 9 3 19 22 2 10 14 14 16 15 3 6 10 5 6 16 29 40 48 56 56 52 46 42 45 47 48 46 41 40 40 39 41 42 44 48 53 57 57 56 56
6 3 10 12 13 18 8 12 28 24 20 15 6 8 18 20 6 10 23 34 42 51 51 48 45 41 44 45 45 42 38 36 35 37 37 38 41 49 57 64 70 70 69 68
7 7 12 24 7 14 13 29 39 26 19 21 21 25 27 15 4 14 26 36 44 45 44 40 40 43 46 45 42 37 34 35 39 39 40 46 54 60 66 69 72 73 76 75
13 11 7 18 10 16 51 57 29 26 17 14 19 26 20 10 6 16 28 36 40 40 38 36 41 46 48 43 38 36 37 42 51 53 52 55 61 64 67 66 65 70 71 66
4 5 13 16 25 48 41 34 31 23 16 12 20 24 17 9 7 16 26 32 36 36 35 34 36 37 36 39 39 41 47 55 58 58 54 56 62 62 59 66 60 62 62 63
4 9 30 21 45 40 39 36 31 27 22 21 23 21 11 8 6 15 23 29 33 35 35 33 33 39 43 48 56 59 57 58 56 55 53 48 46 52 55 56 56 55 52 55
6 32 13 36 42 44 44 39 36 33 34 24 12 11 14 9 7 16 21 26 33 39 48 57 62 65 59 54 54 51 50 48 47 46 48 45 45 49 51 49 47 48 46 45
10 31 16 45 44 49 41 38 37 32 26 24 15 8 13 10 8 14 19 23 33 40 50 48 45 51 45 41 38 40 41 40 41 44 44 44 46 47 49 47 43 41 39 36
27 32 33 56 52 41 43 45 40 32 24 17 17 16 11 7 10 15 18 20 29 31 35 39 32 29 28 29 29 25 28 34 36 36 36 35 34 34 33 36 38 39 37 34
40 31 51 53 44 39 48 55 45 36 30 27 19 11 11 11 12 17 17 20 29 32 33 25 21 22 23 19 17 18 23 30 35 35 33 34 35 35 34 33 34 34 28 30
52 44 51 52 56 60 60 52 44 40 32 25 18 15 16 13 15 20 16 17 28 32 28 18 18 20 20 19 19 8 21 28 29 30 31 35 38 38 37 38 41 43 44 43
52 33 44 63 68 69 60 50 42 38 30 18 14 17 20 14 15 18 14 13 27 33 28 19 17 21 21 25 18 14 25 27 23 21 21 26 32 37 38 40 42 43 45 41
56 48 52 68 75 67 53 44 35 27 19 14 18 23 20 9 12 12 8 6 23 36 28 19 16 20 25 26 35 36 26 22 22 24 25 27 31 31 33 38 42 43 41 40
46 51 65 75 68 58 47 36 26 18 14 16 22 19 15 8 7 8 4 3 19 36 31 20 14 14 15 16 16 17 17 19 21 21 23 25 28 31 33 36 38 38 39 42
66 72 75 67 55 47 40 27 19 17 14 15 19 19 17 13 8 8 2 5 11 28 34 26 18 10 14 11 6 14 15 18 17 17 18 22 25 28 31 33 34 36 38 38
81 78 70 60 47 32 24 20 16 14 14 18 21 19 13 11 9 8 5 5 8 31 38 27 23 11 8 3 11 12 11 11 10 12 15 17 20 25 29 30 31 32 35 39
76 66 56 51 46 35 21 16 15 21 22 18 19 20 15 12 11 11 8 7 9 33 36 41 25 14 5 8 12 13 14 11 12 13 15 16 20 23 27 28 31 33 36 38
62 57 54 47 37 32 30 24 26 24 22 20 17 15 15 11 10 14 10 9 10 32 40 37 26 16 10 10 13 8 11 11 12 14 16 17 18 22 27 29 31 32 35 38
55 51 49 40 35 32 31 28 22 16 9 11 13 13 11 9 11 15 12 9 11 24 46 41 32 21 13 8 8 8 6 11 10 10 11 13 18 24 27 29 31 33 35 37
47 50 43 37 32 28 23 20 16 12 9 5 5 8 11 1 17 18 17 15 14 21 49 49 37 34 16 12 10 10 8 10 8 8 12 14 19 22 24 26 30 33 36 39
47 42 29 26 22 18 14 10 5 3 6 9 5 1 7 9 1 17 19 19 18 24 41 53 48 33 21 9 12 14 15 10 8 8 12 16 18 20 24 26 30 33 37 39
32 26 24 21 17 16 13 10 9 5 8 11 11 10 11 15 6 17 21 22 21 26 40 50 43 36 22 15 12 19 14 6 8 10 12 15 18 22 24 27 31 35 36 38
Wind_Direction_850mb
149 136 144 172 271 244 179 206 175 258 203 256 190 155 132 122 132 175 205 5 344 340 335 331 331 331 331 333 338 340 338 342 344 347 352 351 348 350 350 349 346 341 334 326
156 181 152 214 266 273 258 177 236 161 65 92 95 110 108 125 157 21 16 350 340 336 335 334 334 333 337 342 344 344 348 349 352 355 358 354 354 355 358 358 1 360 358 348
199 136 81 305 244 217 51 338 223 164 185 122 85 86 75 44 348 343 21 347 339 338 337 335 336 341 345 347 349 350 352 355 355 -0 1 359 1 0 4 8 11 15 15 10
148 93 166 243 342 91 99 12 22 86 109 139 120 100 105 135 208 108 9 353 340 337 339 341 346 348 349 352 351 354 355 357 2 5 3 5 9 12 14 23 26 27 32 30
140 166 307 287 157 145 143 304 331 102 89 153 138 109 63 106 97 63 1 348 342 344 347 351 351 351 352 354 0 359 1 2 6 7 8 14 18 23 33 41 42 41 45 46
160 150 186 234 219 128 109 158 211 138 139 122 146 102 251 169 117 34 356 352 354 352 355 356 353 355 356 1 359 2 4 7 12 15 18 28 33 41 50 57 59 59 59 63
125 113 294 244 201 161 130 228 176 166 142 125 135 198 163 164 132 13 3 360 357 358 2 1 5 6 9 8 8 7 9 17 22 28 33 41 50 61 66 68 68 68 68 66
120 147 254 188 169 167 177 139 151 146 136 121 138 148 143 144 81 11 4 2 1 5 6 8 15 16 15 9 8 15 23 36 44 47 57 69 75 73 71 68 66 67 68 70
175 205 240 157 143 153 154 151 157 147 142 133 137 149 154 141 52 15 7 6 7 10 14 18 25 20 14 18 25 36 52 63 71 72 77 77 74 72 67 64 65 66 62 63
144 188 140 139 140 152 154 149 149 150 151 153 151 155 158 146 55 14 13 13 16 20 23 22 25 25 34 41 50 63 69 79 81 77 76 78 76 70 67 61 60 63 62 67
136 70 112 144 148 152 152 149 147 151 157 153 148 153 158 142 60 28 23 24 32 41 42 41 51 57 60 67 76 73 72 74 75 72 70 60 57 47 57 63 62 64 61 65
227 176 149 177 172 169 160 155 158 154 145 142 125 145 162 139 73 36 31 40 69 72 73 81 82 80 78 71 69 65 61 56 51 49 44 61 75 77 72 74 68 67 65 58
173 181 180 170 169 164 165 166 165 155 146 149 151 160 156 132 76 42 44 61 102 95 93 95 85 80 73 67 57 57 57 53 55 57 66 73 71 72 75 72 71 63 54 51
222 183 154 157 161 173 172 163 149 143 145 152 161 160 158 133 82 57 54 88 124 123 113 105 91 73 64 75 74 65 42 51 53 58 65 61 59 59 61 61 62 62 56 44
168 185 173 169 171 179 168 157 156 154 155 161 166 171 162 131 84 57 73 109 138 135 126 107 82 50 27 30 38 49 54 60 61 59 58 55 51 53 55 57 59 56 46 43
171 173 176 177 175 168 163 164 162 155 157 157 170 162 153 126 75 52 76 118 153 150 139 118 73 44 24 14 1 29 64 82 69 63 55 49 46 46 47 52 55 55 53 51
189 165 170 166 167 162 164 165 163 158 158 168 175 168 156 130 85 48 71 123 163 158 153 126 72 52 35 27 51 91 102 92 54 36 59 53 45 46 50 52 53 52 52 48
193 193 190 177 164 160 158 156 153 153 161 175 174 165 153 123 65 62 63 122 170 166 161 136 87 65 77 70 88 104 97 75 67 64 58 52 53 53 53 53 53 52 51 53
193 174 171 165 165 165 160 155 156 160 157 161 164 162 156 108 81 80 27 86 178 176 168 152 115 89 77 89 92 85 83 76 69 64 59 55 55 54 47 45 44 44 46 50
162 163 164 162 161 161 151 152 150 146 147 170 169 167 160 136 131 133 148 95 151 174 174 168 153 123 87 32 115 105 94 89 84 64 53 47 47 45 40 39 39 41 48 52
159 159 156 151 144 143 145 139 140 128 131 165 159 152 152 162 167 167 203 139 149 173 172 175 157 147 135 42 90 80 83 88 83 56 49 46 42 42 43 41 42 46 52 53
149 148 144 142 137 128 123 132 119 106 97 116 150 158 160 172 183 189 194 177 160 169 173 163 152 146 100 140 99 98 102 75 57 57 53 47 44 44 41 43 49 52 55 54
147 143 144 136 124 120 118 119 126 108 93 80 81 111 149 169 188 189 180 199 172 179 174 165 153 142 117 107 138 87 73 73 52 59 57 52 48 48 48 53 50 53 55 54
134 136 135 133 131 125 128 134 135 141 122 84 77 84 118 163 183 191 195 206 181 176 177 171 163 153 136 126 123 109 118 65 77 64 53 58 57 47 51 51 52 53 55 54
137 143 144 145 132 129 128 135 148 168 183 171 106 76 47 24 212 213 207 215 196 181 182 179 176 181 186 195 159 131 108 83 80 75 85 67 54 52 52 55 58 60 59 56
148 150 152 145 138 139 141 148 131 172 222 220 227 276 9 11 205 206 206 206 196 182 180 183 179 192 188 191 180 158 153 97 111 106 69 60 57 63 64 62 67 68 63 57
150 150 152 162 187 199 204 218 234 255 267 247 260 279 300 332 258 196 197 194 184 181 177 181 178 185 187 177 158 157 166 129 97 67 60 67 76 73 69 77 76 71 65 59